Regional Weather Roundup
Issued by NWS

Home | Current Version | Previous Version | Text Only | Print | Product List | Glossary Off
Versions: 1 2 3 4 5 6 7 8 9 10 11 12 13 14 15 16 17 18 19 20 21 22 23 24 25 26 27 28 29 30 31 32 33 34 35 36 37 38 39 40 41 42 43 44 45 46 47 48 49 50

000
ASUS43 KMKX 260910
RWRWI

WISCONSIN REGIONAL WEATHER ROUNDUP
NATIONAL WEATHER SERVICE MILWAUKEE/SULLIVAN WI
400 AM CDT THU APR 26 2018

NOTE: "FAIR" INDICATES FEW OR NO CLOUDS BELOW 12,000 FEET WITH NO
SIGNIFICANT WEATHER AND/OR OBSTRUCTIONS TO VISIBILITY.

WIZ001-002-006>008-014>016-023>028-261000-
NORTHWEST WISCONSIN

CITY           SKY/WX    TMP DP  RH WIND       PRES   REMARKS
SUPERIOR ARPT  FAIR      39  26  58 SW6       29.83F WCI  35
ASHLAND        FAIR      37  23  56 S7        29.85F WCI  32
HAYWARD        FAIR      30  24  78 CALM      29.87F
SIREN          FAIR      32  25  74 CALM      29.87F
CUMBERLAND     FAIR      32  27  80 CALM      29.88F
RICE LAKE      FAIR      32  30  93 CALM      29.90F
CHETEK         FAIR      30  27  89 CALM      29.90S
LADYSMITH      FAIR      33  28  83 CALM      29.91S
EAU CLAIRE     FAIR      35  28  75 CALM      29.90S
MENOMONIE      FAIR      36  32  85 CALM      29.91S
NEW RICHMOND   FAIR      35  29  78 S3        29.88F
OSCEOLA        FAIR      37  30  77 S5        29.91S WCI  33
$$

WIZ003>005-009-010-017-018-261000-
NORTH CENTRAL WISCONSIN

CITY           SKY/WX    TMP DP  RH WIND       PRES   REMARKS
MANITOWISH WTR FAIR      26  24  93 CALM      29.88R
ARBOR VITAE    FAIR      32  27  81 CALM      29.88S
WOODRUFF       FAIR      32  27  81 CALM      29.88S
RHINELANDER    FAIR      28  22  78 CALM      29.89S
EAGLE RIVER    FAIR      26  22  84 CALM      29.87F
LAND O LAKES   FAIR      26  24  91 CALM      29.89S
PHILLIPS       FAIR      29  26  90 CALM      29.88S
TOMAHAWK       FAIR      26  23  89 CALM      29.90S
MEDFORD        FAIR      33  27  77 S3        29.89S
MERRILL        FAIR      27  24  91 CALM      29.91F
$$

WIZ029-030-035-036-043>047-261000-
CENTRAL WISCONSIN

CITY           SKY/WX    TMP DP  RH WIND       PRES   REMARKS
WAUSAU         FAIR      32  27  81 CALM      29.90S
MOSINEE        FAIR      32  27  80 CALM      29.92S
MARSHFIELD     FAIR      36  29  75 S5        29.90F WCI  32
STEVENS POINT  FAIR      28  27  95 CALM      29.93S
WAUPACA        FAIR      37  32  83 CALM      29.93S
WAUTOMA        FAIR      28  26  92 CALM      29.94F
WISC RAPIDS    FAIR      31  27  85 CALM      29.93S
CAMP DOUGLAS   FAIR      29  28  97 CALM      29.92F
$$

WIZ011>013-019>022-031-037>040-048>050-261000-
NORTHEAST WISCONSIN

CITY           SKY/WX    TMP DP  RH WIND       PRES   REMARKS
ANTIGO         FAIR      29  29  99 CALM      29.90F
SHAWANO        FAIR      33  31  92 CALM      29.92F
OCONTO         FAIR      29  27  91 CALM      29.92S
STURGEON BAY   FAIR      35  26  69 S7        29.93F WCI  29
GREEN BAY      FAIR      36  31  82 CALM      29.93S
MANITOWOC      FAIR      33  28  81 CALM      29.95S
APPLETON       FAIR      36  28  75 SW3       29.92S
CLINTONVILLE   FAIR      33  30  86 CALM      29.92F
OSHKOSH        FAIR      38  31  76 SW7       29.93S WCI  33
$$

WIZ032>034-041-042-053>061-261000-
SOUTHWEST WISCONSIN

CITY           SKY/WX    TMP DP  RH WIND       PRES   REMARKS
LA CROSSE      FAIR      41  34  76 SE6       29.92F
SPARTA         FAIR      28  26  93 CALM      29.93F
VIROQUA        FAIR      46  28  50 SW3       29.93S
BOSCOBEL       FAIR      33  29  85 CALM      29.95S
PRAIRIE DU CHI FAIR      36  28  72 CALM      29.94S
PLATTEVILLE    FAIR      38  32  78 SE6       29.95F WCI  34
$$

WIZ056-057-062-063-064-067-068-261000-
SOUTH CENTRAL WISCONSIN

CITY           SKY/WX    TMP DP  RH WIND       PRES   REMARKS
REEDSBURG      FAIR      35  32  90 CALM      29.94S
BARABOO/DELLS  FAIR      38  30  71 S7        29.93F WCI  33
LONE ROCK      FAIR      32  29  88 CALM      29.96S
MINERAL POINT  FAIR      37  34  87 SE7       29.94F WCI  32
MADISON        FAIR      39  31  72 CALM      29.96R
MIDDLETON      FAIR      40  32  73 S3        29.96S
WATERTOWN      FAIR      32  30  92 CALM      29.95S
MONROE         FAIR      34  30  86 S9        29.95S WCI  26
JANESVILLE     FAIR      36  32  87 CALM      29.96S
$$

WIZ051-052-058>065-066-070>072-261000-
SOUTHEAST WISCONSIN

CITY           SKY/WX    TMP DP  RH WIND       PRES   REMARKS
MILWAUKEE      FAIR      38  31  76 CALM      29.96S
WAUKESHA       FAIR      32  27  80 CALM      29.96S
MILWAUKEE/TIMM FAIR      34  27  75 CALM      29.96F
RACINE         FAIR      34  28  79 W5        29.98R WCI  30
BURLINGTON     FAIR      28  26  91 CALM      29.96S
KENOSHA        FAIR      33  28  81 W5        29.96S WCI  29
FOND DU LAC    FAIR      37  30  75 S6        29.94S WCI  32
SHEBOYGAN      FAIR      32  28  85 SW3       29.94S
WEST BEND      FAIR      30  30 100 CALM      29.95S
JUNEAU         FAIR      33  30  87 CALM      29.96S
$$

LSZ147-162-261000-
LAKE SUPERIOR

STATION/POSITION TIME  TEMP    WIND        PRES    WAVE
                       AIR SEA DIR/SP/G            HT/PER
                 (UTC) (F)     (DEG/KT/KT) (MB)    (FT/S)
DEVILS ISLAND    0900   42     220/ 10/ 11 1010.4F
SAXON HARBOR     0840   35     190/  5/  8 1010.5F
$$

LMZ867-665-643>646-261000-
LAKE MICHIGAN

STATION/POSITION TIME  TEMP    WIND        PRES    WAVE
                       AIR SEA DIR/SP/G            HT/PER
                 (UTC) (F)     (DEG/KT/KT) (MB)    (FT/S)
NORTHPORT PIER   0900   30                 1013.2
KEWAUNEE LAKESHO 0848   37     240/  4/  6 1013.1F
SHEBOYGAN LAKESH 0800   38     240/  8/  9 1014.6F
PORT WASHINGTON  0830   37     260/  6/  7 1015.6S
MILWAUKEE LAKESH 0850   39     280/  3/  3   N/A
KENOSHA   LAKESH 0900   37                 1014.9
$$

TC  - TEMPERATURE IN CELSIUS
VSB - VISIBILITY IN STATUTE MILES
WCI - WIND CHILL INDEX
HX  - HEAT INDEX





USA.gov is the U.S. government's official web portal to all federal, state and local government web resources and services.